Regional Weather Roundup
Issued by NWS Green Bay, WI

Home | Current Version | Previous Version | Graphics & Text | Print | Product List | Glossary Off
Versions: 1 2 3 4 5 6 7 8 9 10 11 12 13 14 15 16 17 18 19 20 21 22 23 24 25 26 27 28 29 30 31 32 33 34 35 36 37 38 39 40 41 42 43 44 45 46 47 48 49 50

000
ASUS43 KGRB 160200
RWRGRB

NORTH-CENTRAL AND NORTHEAST WISCONSIN REGIONAL WEATHER ROUNDUP
NATIONAL WEATHER SERVICE GREEN BAY WI
800 PM CST SUN JAN 15 2017

WIZ005-009-010>012-018-019-160300-
NORTH CENTRAL WISCONSIN

CITY           SKY/WX    TMP DP  RH WIND       PRES   REMARKS
IRONWOOD       CLEAR     26  11  52 S12       30.12F
MANITOWISH WTR NOT AVBL
ARBOR VITAE    NOT AVBL
EAGLE RIVER    NOT AVBL
LAND O LAKES   NOT AVBL
RHINELANDER    CLOUDY    16   8  71 SW7       30.19S WCI   6
PHILLIPS       CLOUDY    18   9  67 S5        30.19S
ANTIGO         NOT AVBL
TOMAHAWK       NOT AVBL
MERRILL        CLOUDY     3   1  90 CALM        N/A  FOG
$$

WIZ013-073-160300-
NORTHEAST WISCONSIN

CITY           SKY/WX    TMP DP  RH WIND       PRES   REMARKS
IRON MOUNTAIN  CLEAR     26   8  46 W6        30.16F
MARINETTE      NOT AVBL
$$

WIZ017-030-035>037-045-160300-
CENTRAL WISCONSIN

CITY           SKY/WX    TMP DP  RH WIND       PRES   REMARKS
MEDFORD        NOT AVBL
WAUSAU         CLOUDY    17   9  70 E3        30.23F
MOSINEE        NOT AVBL
MARSHFIELD     CLOUDY    14   9  80 SW3       30.23F
WISC RAPIDS    CLOUDY    12  10  92 CALM      30.27F FOG
STEVENS POINT  NOT AVBL
WAUPACA        NOT AVBL
SHAWANO        NOT AVBL
CLINTONVILLE   CLOUDY    10   5  79 CALM      30.27F
WAUTOMA        CLOUDY     9   7  92 CALM      30.29S
$$

WIZ038-039-048-051-160300-
FOX VALLEY

CITY           SKY/WX    TMP DP  RH WIND       PRES   REMARKS
NWS GREEN BAY  CLOUDY    18  11  74 SW3       30.28F
APPLETON       PTCLDY    16   9  73 S6        30.26F WCI   7
OSHKOSH        CLOUDY    12   8  84 SW5       30.28F WCI   4
FOND DU LAC    FLURRIES   8   4  83 S5        30.29F WCI   0
$$

WIZ022-050-052-160300-
EAST CENTRAL WISCONSIN

CITY           SKY/WX    TMP DP  RH WIND       PRES   REMARKS
EPHRAIM        NOT AVBL
WASHINGTON ISL NOT AVBL
STURGEON BAY   CLOUDY    18  10  71 SW6       30.27S WCI  10
MANITOWOC      NOT AVBL
SHEBOYGAN      CLOUDY    15   8  73 W3        30.30S
$$

LMZ563-521-522-541>543-160300-
LAKESHORE

STATION/POSITION TIME  TEMP    WIND        PRES    VSBY  WAVE
                       AIR SEA DIR/SP/G                  HT/PER
                 (UTC) (F)     (DEG/KT/KT) (MB)    (MI)  (FT/S)
SHEBOYGAN LKSHOR 0100   28     210/  7/  7 1027.2F
KEWAUNEE LKSHORE 0130   19      CALM  /  3 1025.0F
NORTHPORT PIER   0140   22     200/  1/  7 1024.0F
SISTER BAY LKSHO 0050   24     220/  7/  9   N/A
MENOMINEE LKSHOR 0130          200/  7/ 10 1023.6S
$$



USA.gov is the U.S. government's official web portal to all federal, state and local government web resources and services.